| time (UTC) | temp C | wind direction | speed KPH | gust KPH | rain 1hr cm | rain 24hr cm | rain mn cm | humidity % | barometer mb |
| 20260507201550 | 16 | 263 | 11.3 | 29.0 | 0.00 | 3.48 | 3.48 | 1 | 998.9 |
| 20260507200048 | 16 | 305 | 8.0 | 20.9 | 0.00 | 3.48 | 3.48 | 1 | 999.2 |
| 20260507194545 | 16 | 298 | 8.0 | 16.1 | 0.00 | 3.48 | 3.48 | 1 | 998.9 |
| 20260507193033 | 16 | 296 | 6.4 | 17.7 | 0.00 | 3.48 | 3.48 | 1 | 998.9 |
| 20260507191530 | 16 | 349 | 0.0 | 8.0 | 0.00 | 3.48 | 3.48 | 1 | 997.6 |
| 20260507190022 | 16 | 14 | 3.2 | 14.5 | 0.00 | 3.48 | 3.48 | 1 | 997.7 |
| 20260507184518 | 16 | 358 | 0.0 | 8.0 | 0.00 | 3.48 | 3.48 | 1 | 998.6 |
| 20260507183020 | 16 | 287 | 0.0 | 6.4 | 0.00 | 3.48 | 3.48 | 1 | 997.9 |
| 20260507181508 | 16 | 286 | 0.0 | 9.7 | 0.00 | 3.48 | 3.48 | 1 | 997.8 |
| 20260507180004 | 16 | 28 | 6.4 | 17.7 | 0.03 | 3.48 | 3.48 | 1 | 998.5 |
| 20260507174600 | 16 | 313 | 3.2 | 12.9 | 0.05 | 3.48 | 3.48 | 1 | 998.4 |
| 20260507173057 | 16 | 293 | 0.0 | 11.3 | 0.05 | 3.48 | 3.48 | 1 | 998.6 |
| 20260507171552 | 16 | 331 | 1.6 | 9.7 | 0.05 | 3.48 | 3.48 | 1 | 998.9 |
| 20260507170050 | 16 | 290 | 3.2 | 11.3 | 0.05 | 3.45 | 3.45 | 1 | 998.8 |
| 20260507164556 | 16 | 57 | 0.0 | 8.0 | 0.08 | 3.45 | 3.43 | 1 | 998.1 |
| 20260507163039 | 16 | 322 | 3.2 | 14.5 | 0.15 | 3.45 | 3.43 | 1 | 999.6 |
| 20260507161539 | 16 | 318 | 3.2 | 9.7 | 0.15 | 3.43 | 3.43 | 1 | 999.8 |
| 20260507160034 | 16 | 12 | 0.0 | 9.7 | 0.20 | 3.43 | 3.40 | 1 | 999.8 |
| 20260507154525 | 16 | 28 | 1.6 | 9.7 | 0.23 | 3.38 | 3.35 | 1 | 1000.3 |
| 20260507153021 | 16 | 293 | 4.8 | 12.9 | 0.25 | 3.33 | 3.30 | 1 | 1000.3 |
| 20260507151517 | 16 | 289 | 4.8 | 11.3 | 0.28 | 3.30 | 3.28 | 1 | 1000.2 |
| 20260507150014 | 16 | 321 | 3.2 | 12.9 | 0.25 | 3.23 | 3.20 | 1 | 1000.7 |
| 20260507144510 | 16 | 327 | 6.4 | 17.7 | 0.23 | 3.15 | 3.12 | 1 | 1001.1 |
| 20260507143003 | 16 | 296 | 8.0 | 16.1 | 0.18 | 3.05 | 3.05 | 1 | 1001.0 |
| 20260507141623 | 16 | 280 | 6.4 | 20.9 | 0.15 | 3.02 | 3.00 | 1 | 1001.2 |
| 20260507140054 | 16 | 284 | 14.5 | 30.6 | 0.08 | 2.97 | 2.92 | 1 | 1001.4 |
| 20260507134550 | 16 | 288 | 6.4 | 20.9 | 0.03 | 2.87 | 2.84 | 1 | 1000.0 |
| 20260507133046 | 16 | 336 | 11.3 | 37.0 | 0.00 | 2.84 | 2.84 | 1 | 1000.1 |
| 20260507131551 | 16 | 253 | 1.6 | 8.0 | 0.00 | 2.84 | 2.84 | 1 | 1000.1 |
| 20260507130041 | 16 | 55 | 3.2 | 9.7 | 0.05 | 2.84 | 2.84 | 1 | 998.9 |
| 20260507124536 | 16 | 60 | 6.4 | 16.1 | 0.10 | 2.84 | 2.84 | 1 | 998.3 |
| 20260507123029 | 16 | 78 | 8.0 | 20.9 | 0.13 | 2.84 | 2.84 | 1 | 998.1 |
| 20260507121523 | 16 | 60 | 9.7 | 29.0 | 0.15 | 2.84 | 2.84 | 1 | 996.4 |
| 20260507120019 | 16 | 76 | 8.0 | 19.3 | 0.15 | 2.84 | 2.82 | 1 | 997.0 |
| 20260507114521 | 16 | 82 | 9.7 | 25.7 | 0.23 | 2.77 | 2.77 | 1 | 998.5 |
| 20260507113010 | 16 | 61 | 12.9 | 22.5 | 0.33 | 2.77 | 2.74 | 1 | 997.6 |
| 20260507111507 | 16 | 102 | 11.3 | 19.3 | 0.43 | 2.72 | 2.69 | 1 | 998.0 |
| 20260507110001 | 16 | 78 | 8.0 | 14.5 | 0.43 | 2.67 | 2.64 | 1 | 998.3 |
| 20260507104601 | 16 | 60 | 9.7 | 17.7 | 0.43 | 2.57 | 2.54 | 1 | 999.1 |
| 20260507103052 | 16 | 81 | 1.6 | 4.8 | 0.33 | 2.41 | 2.39 | 1 | 1000.3 |
| 20260507101548 | 16 | 15 | 1.6 | 6.4 | 0.28 | 2.31 | 2.29 | 1 | 999.9 |
| 20260507100054 | 16 | 77 | 3.2 | 9.7 | 0.28 | 2.21 | 2.21 | 1 | 998.0 |
| 20260507094539 | 16 | 261 | 0.0 | 6.4 | 0.33 | 2.13 | 2.11 | 1 | 999.0 |
| 20260507093035 | 16 | 188 | 0.0 | 16.1 | 0.33 | 2.08 | 2.06 | 1 | 1000.5 |
| 20260507091535 | 17 | 258 | 11.3 | 20.9 | 0.28 | 2.01 | 1.98 | 1 | 1001.4 |
| 20260507090026 | 17 | 263 | 9.7 | 25.7 | 0.23 | 1.93 | 1.93 | 1 | 1001.6 |
| 20260507084521 | 17 | 266 | 11.3 | 29.0 | 0.13 | 1.83 | 1.80 | 1 | 1002.2 |
| 20260507083017 | 18 | 296 | 11.3 | 25.7 | 0.08 | 1.75 | 1.73 | 1 | 1001.9 |
| 20260507081512 | 18 | 328 | 11.3 | 22.5 | 0.15 | 1.73 | 1.70 | 1 | 1001.4 |
| 20260507080008 | 18 | 305 | 9.7 | 19.3 | 0.46 | 1.73 | 1.70 | 1 | 1000.1 |
| 20260507074504 | 18 | 266 | 6.4 | 19.3 | 1.19 | 1.70 | 1.68 | 1 | 1000.3 |
| 20260507073100 | 18 | 286 | 1.6 | 16.1 | 1.42 | 1.65 | 1.65 | 1 | 1002.1 |
| 20260507071555 | 18 | 284 | 9.7 | 29.0 | 1.37 | 1.57 | 1.55 | 1 | 1000.9 |
| 20260507070101 | 18 | 259 | 17.7 | 33.8 | 1.04 | 1.27 | 1.24 | 1 | 1001.7 |
| 20260507064618 | 19 | 296 | 11.3 | 32.2 | 0.43 | 0.51 | 0.48 | 1 | 1001.2 |
| 20260507063042 | 20 | 315 | 17.7 | 40.2 | 0.18 | 0.23 | 0.20 | 1 | 1000.2 |
| 20260507061538 | 24 | 257 | 25.7 | 40.2 | 0.18 | 0.23 | 0.20 | 25 | 1000.9 |
| 20260507060041 | 25 | 5 | 14.5 | 37.0 | 0.18 | 0.23 | 0.20 | 17 | 998.8 |
| 20260507054532 | 26 | 294 | 16.1 | 38.6 | 0.05 | 0.08 | 0.05 | 52 | 998.9 |
| 20260507053031 | 27 | 327 | 11.3 | 37.0 | 0.03 | 0.05 | 0.03 | 56 | 999.0 |
| 20260507051527 | 27 | 42 | 9.7 | 33.8 | 0.03 | 0.05 | 0.03 | 57 | 999.3 |
| 20260507050038 | 27 | 346 | 11.3 | 37.0 | 0.03 | 0.05 | 0.03 | 56 | 999.4 |
| 20260507044524 | 27 | 46 | 11.3 | 33.8 | 0.03 | 0.05 | 0.03 | 57 | 1000.1 |
| 20260507043023 | 27 | 37 | 14.5 | 38.6 | 0.00 | 0.03 | 0.00 | 58 | 1000.1 |
| 20260507041526 | 27 | 299 | 14.5 | 40.2 | 0.00 | 0.03 | 0.00 | 58 | 1000.5 |
| 20260507040019 | 27 | 330 | 9.7 | 29.0 | 0.00 | 0.03 | 0.00 | 57 | 1000.6 |
| 20260507034517 | 27 | 49 | 17.7 | 37.0 | 0.00 | 0.03 | 0.00 | 54 | 1000.7 |
| 20260507033013 | 25 | 45 | 9.7 | 19.3 | 0.00 | 0.03 | 0.00 | 38 | 1000.9 |
| 20260507031511 | 25 | 88 | 4.8 | 20.9 | 0.00 | 0.03 | 0.00 | 40 | 1001.0 |
| 20260507030017 | 25 | 333 | 8.0 | 25.7 | 0.00 | 0.03 | 0.00 | 34 | 1001.0 |
| 20260507024512 | 25 | 39 | 9.7 | 22.5 | 0.00 | 0.03 | 0.03 | 23 | 1000.9 |
| 20260507023100 | 25 | 49 | 16.1 | 32.2 | 0.00 | 0.03 | 0.03 | 15 | 1000.7 |
| 20260507021554 | 25 | 45 | 14.5 | 41.8 | 0.00 | 0.03 | 0.03 | 4 | 1000.7 |
| 20260507014554 | 25 | 3 | 12.9 | 38.6 | 0.00 | 0.03 | 0.03 | 1 | 1001.4 |
| 20260507013044 | 24 | 42 | 11.3 | 41.8 | 0.00 | 0.03 | 0.03 | 1 | 1001.1 |
| 20260507011541 | 23 | 44 | 8.0 | 29.0 | 0.00 | 0.03 | 0.03 | 1 | 1001.6 |
| 20260507010051 | 23 | 44 | 14.5 | 38.6 | 0.00 | 0.03 | 0.03 | 1 | 1002.0 |
| 20260507004534 | 24 | 51 | 16.1 | 37.0 | 0.00 | 0.03 | 0.03 | 1 | 1002.5 |
| 20260507003026 | 24 | 57 | 11.3 | 20.9 | 0.00 | 0.03 | 0.03 | 1 | 1003.4 |
| 20260507001522 | 24 | 338 | 12.9 | 25.7 | 0.00 | 0.03 | 0.03 | 1 | 1003.9 |
| 20260507000017 | 24 | 47 | 4.8 | 17.7 | 0.00 | 0.03 | 0.03 | 1 | 1004.6 |
| 20260506234513 | 24 | 54 | 6.4 | 20.9 | 0.00 | 0.03 | 0.03 | 1 | 1005.2 |
| 20260506233012 | 24 | 44 | 8.0 | 20.9 | 0.00 | 0.03 | 0.03 | 1 | 1005.7 |
| 20260506231503 | 24 | 349 | 8.0 | 22.5 | 0.00 | 0.03 | 0.03 | 1 | 1006.1 |
| 20260506230119 | 24 | 44 | 9.7 | 19.3 | 0.00 | 0.03 | 0.03 | 1 | 1006.3 |
| 20260506224554 | 24 | 298 | 8.0 | 16.1 | 0.00 | 0.03 | 0.03 | 1 | 1006.5 |
| 20260506223050 | 23 | 38 | 6.4 | 17.7 | 0.00 | 0.03 | 0.03 | 1 | 1006.6 |
| 20260506221600 | 23 | 41 | 4.8 | 14.5 | 0.00 | 0.03 | 0.03 | 1 | 1006.7 |
| 20260506220050 | 23 | 63 | 3.2 | 14.5 | 0.00 | 0.03 | 0.03 | 1 | 1006.7 |
| 20260506214539 | 23 | 45 | 1.6 | 9.7 | 0.00 | 0.03 | 0.03 | 1 | 1006.7 |
| 20260506213035 | 23 | 82 | 1.6 | 11.3 | 0.00 | 0.03 | 0.03 | 1 | 1006.6 |
| 20260506211530 | 23 | 85 | 4.8 | 9.7 | 0.00 | 0.03 | 0.03 | 1 | 1006.5 |
| 20260506210025 | 23 | 56 | 3.2 | 9.7 | 0.00 | 0.03 | 0.03 | 1 | 1006.6 |
| 20260506204518 | 24 | 43 | 4.8 | 9.7 | 0.00 | 0.03 | 0.03 | 3 | 1006.7 |
| 20260506203015 | 25 | 84 | 4.8 | 16.1 | 0.00 | 0.03 | 0.03 | 11 | 1006.8 |